TimeCST,TemperatureF,Dew PointF,Humidity,Sea Level PressureIn,VisibilityMPH,Wind Direction,Wind SpeedMPH,Gust SpeedMPH,PrecipitationIn,Events,Conditions,WindDirDegrees,DateUTC
12:15 AM,12.9,2.5,63,30.12,10.0,NW,17.3,24.2,N/A,,Mostly Cloudy,320,2012-12-10 06:15:00
12:35 AM,12.0,2.3,65,30.11,10.0,NNW,15.0,23.0,N/A,,Scattered Clouds,330,2012-12-10 06:35:00
12:55 AM,11.3,2.3,67,30.11,10.0,NNW,11.5,17.3,N/A,,Clear,330,2012-12-10 06:55:00
1:15 AM,11.3,2.5,68,30.11,10.0,NW,15.0,19.6,N/A,,Clear,320,2012-12-10 07:15:00
1:35 AM,11.1,2.5,68,30.12,10.0,NW,15.0,23.0,N/A,,Clear,310,2012-12-10 07:35:00
1:55 AM,10.8,2.3,69,30.12,10.0,NW,12.7,23.0,N/A,,Clear,310,2012-12-10 07:55:00
2:15 AM,10.4,2.5,70,30.12,10.0,NW,11.5,18.4,N/A,,Clear,310,2012-12-10 08:15:00
2:55 AM,9.5,2.3,73,30.12,10.0,NW,10.4,-,N/A,,Clear,310,2012-12-10 08:55:00
3:15 AM,9.1,2.5,74,30.11,10.0,NW,13.8,-,N/A,,Clear,310,2012-12-10 09:15:00
3:35 AM,8.6,2.7,77,30.11,10.0,NW,12.7,-,N/A,,Clear,310,2012-12-10 09:35:00
3:55 AM,8.2,2.3,77,30.09,10.0,NW,12.7,17.3,N/A,,Clear,310,2012-12-10 09:55:00
4:15 AM,8.2,2.3,77,30.08,10.0,NW,16.1,20.7,N/A,,Clear,310,2012-12-10 10:15:00
4:35 AM,8.2,2.3,77,30.08,10.0,NW,15.0,-,N/A,,Clear,310,2012-12-10 10:35:00
4:55 AM,7.7,1.9,77,30.08,10.0,NW,16.1,20.7,N/A,,Clear,310,2012-12-10 10:55:00
5:15 AM,7.5,1.8,77,30.07,10.0,NW,12.7,19.6,N/A,,Clear,310,2012-12-10 11:15:00
6:15 AM,6.8,1.4,79,30.08,10.0,NW,10.4,-,N/A,,Clear,310,2012-12-10 12:15:00
6:35 AM,6.8,1.8,80,30.08,10.0,NW,11.5,-,N/A,,Clear,310,2012-12-10 12:35:00
6:55 AM,6.3,1.0,79,30.07,10.0,NNW,6.9,-,N/A,,Clear,330,2012-12-10 12:55:00
7:15 AM,5.7,0.7,80,30.07,10.0,NW,6.9,-,N/A,,Clear,310,2012-12-10 13:15:00
7:35 AM,6.1,1.4,81,30.08,10.0,NW,6.9,-,N/A,,Clear,320,2012-12-10 13:35:00
7:55 AM,5.9,1.0,80,30.08,10.0,NW,8.1,-,N/A,,Clear,310,2012-12-10 13:55:00
8:15 AM,7.2,1.8,79,30.07,10.0,WNW,5.8,-,N/A,,Clear,290,2012-12-10 14:15:00
8:35 AM,8.2,2.7,78,30.07,10.0,WNW,5.8,-,N/A,,Clear,290,2012-12-10 14:35:00
8:55 AM,9.3,3.4,77,30.08,10.0,WNW,9.2,-,N/A,,Clear,290,2012-12-10 14:55:00
9:15 AM,10.9,3.9,73,30.09,10.0,WNW,11.5,-,N/A,,Clear,300,2012-12-10 15:15:00
9:35 AM,12.4,4.1,69,30.09,10.0,WNW,6.9,-,N/A,,Clear,300,2012-12-10 15:35:00
10:15 AM,15.3,5.2,64,30.09,10.0,West,6.9,-,N/A,,Clear,260,2012-12-10 16:15:00
10:35 AM,16.0,5.0,62,30.08,10.0,West,4.6,-,N/A,,Clear,280,2012-12-10 16:35:00
10:55 AM,17.4,5.4,59,30.07,10.0,Calm,Calm,-,N/A,,Clear,0,2012-12-10 16:55:00
11:15 AM,18.7,6.1,58,30.07,10.0,West,5.8,-,N/A,,Clear,270,2012-12-10 17:15:00
11:35 AM,20.3,6.1,54,30.04,10.0,SW,3.5,-,N/A,,Clear,220,2012-12-10 17:35:00
11:55 AM,21.4,5.9,51,30.03,10.0,SW,3.5,-,N/A,,Clear,220,2012-12-10 17:55:00
12:15 PM,23.0,5.4,47,30.02,10.0,SW,5.8,-,N/A,,Clear,230,2012-12-10 18:15:00
12:35 PM,24.3,5.0,44,29.99,10.0,South,4.6,-,N/A,,Clear,180,2012-12-10 18:35:00
12:55 PM,25.3,4.5,41,29.97,10.0,SSW,3.5,-,N/A,,Clear,200,2012-12-10 18:55:00
1:15 PM,27.1,5.2,39,29.97,10.0,SSW,6.9,-,N/A,,Clear,200,2012-12-10 19:15:00
1:35 PM,28.8,3.9,35,29.95,10.0,South,8.1,-,N/A,,Clear,170,2012-12-10 19:35:00
1:55 PM,28.9,3.9,35,29.94,10.0,South,8.1,-,N/A,,Clear,170,2012-12-10 19:55:00
2:15 PM,29.8,3.7,33,29.92,10.0,South,10.4,16.1,N/A,,Clear,190,2012-12-10 20:15:00
2:35 PM,30.2,3.7,33,29.91,10.0,South,11.5,-,N/A,,Clear,170,2012-12-10 20:35:00
2:55 PM,30.6,3.7,32,29.90,10.0,SSE,11.5,17.3,N/A,,Clear,160,2012-12-10 20:55:00
3:15 PM,30.4,3.6,32,29.89,10.0,SSE,11.5,-,N/A,,Clear,160,2012-12-10 21:15:00
3:35 PM,30.6,3.0,31,29.90,10.0,South,12.7,-,N/A,,Clear,190,2012-12-10 21:35:00
3:55 PM,30.6,3.0,31,29.90,10.0,South,10.4,-,N/A,,Clear,190,2012-12-10 21:55:00
4:15 PM,29.1,2.8,33,29.90,10.0,South,8.1,-,N/A,,Clear,190,2012-12-10 22:15:00
4:35 PM,27.5,3.0,35,29.90,10.0,South,8.1,-,N/A,,Clear,180,2012-12-10 22:35:00
4:55 PM,24.1,3.0,40,29.90,10.0,South,9.2,-,N/A,,Clear,170,2012-12-10 22:55:00
5:15 PM,22.1,3.2,44,29.90,10.0,South,8.1,-,N/A,,Clear,170,2012-12-10 23:15:00
5:35 PM,21.6,3.0,45,29.90,10.0,SSE,8.1,-,N/A,,Clear,150,2012-12-10 23:35:00
5:55 PM,19.0,2.3,48,29.90,10.0,SSE,5.8,-,N/A,,Clear,150,2012-12-10 23:55:00
6:15 PM,18.7,2.5,49,29.90,10.0,SSE,8.1,-,N/A,,Clear,160,2012-12-11 00:15:00
6:35 PM,18.5,2.3,49,29.90,10.0,SSE,6.9,-,N/A,,Clear,160,2012-12-11 00:35:00
6:55 PM,14.7,1.6,56,29.89,10.0,SSE,5.8,-,N/A,,Clear,150,2012-12-11 00:55:00
7:15 PM,16.5,2.5,54,29.90,10.0,South,6.9,-,N/A,,Clear,170,2012-12-11 01:15:00
7:35 PM,17.2,2.8,53,29.90,10.0,South,5.8,-,N/A,,Clear,170,2012-12-11 01:35:00
7:55 PM,16.2,2.8,56,29.90,10.0,South,4.6,-,N/A,,Clear,180,2012-12-11 01:55:00
8:15 PM,17.4,2.8,53,29.91,10.0,SSW,4.6,-,N/A,,Clear,200,2012-12-11 02:15:00
8:55 PM,18.3,3.6,53,29.91,10.0,SSW,3.5,-,N/A,,Clear,200,2012-12-11 02:55:00
9:15 PM,21.2,3.6,47,29.91,10.0,SSW,3.5,-,N/A,,Clear,200,2012-12-11 03:15:00
9:35 PM,21.7,3.7,46,29.91,10.0,SSW,3.5,-,N/A,,Scattered Clouds,210,2012-12-11 03:35:00
9:55 PM,20.1,4.5,51,29.91,10.0,South,3.5,-,N/A,,Clear,190,2012-12-11 03:55:00
10:15 PM,19.9,5.5,54,29.91,10.0,SW,6.9,-,N/A,,Clear,220,2012-12-11 04:15:00
10:35 PM,21.2,6.8,54,29.91,10.0,WSW,3.5,-,N/A,,Scattered Clouds,240,2012-12-11 04:35:00
11:15 PM,22.5,7.9,54,29.91,10.0,SW,5.8,-,N/A,,Overcast,220,2012-12-11 05:15:00
11:35 PM,24.8,9.5,52,29.91,10.0,SW,4.6,-,N/A,,Overcast,230,2012-12-11 05:35:00
11:55 PM,25.5,10.4,53,29.91,10.0,WSW,4.6,-,N/A,,Overcast,240,2012-12-11 05:55:00